Wind_Speed
51 51 48 47 44 41 39 40 40 37 33 31 28 25 22 21 18 16 14 13 13 13 12 12 13 13 13 13 13 12 11 11 11 12 13 14 15 16 17 18 19 20 20
48 52 52 50 48 45 43 41 41 41 39 34 32 30 27 25 23 21 19 16 16 15 15 16 16 16 15 15 14 13 14 13 13 13 14 15 15 16 18 18 19 19 19
50 50 52 52 51 49 47 44 42 43 43 41 37 34 31 29 27 26 23 20 19 17 18 18 18 18 17 17 17 16 15 15 15 14 13 13 13 13 15 15 15 15 16
55 50 52 53 52 51 49 47 45 43 44 45 42 39 35 33 31 30 28 25 22 21 20 20 20 19 20 19 19 19 17 16 16 15 16 14 15 15 15 15 15 17 17
55 54 53 55 56 54 51 50 48 46 45 46 46 43 39 37 36 32 32 28 27 26 24 24 22 22 23 23 23 21 20 19 19 18 18 18 18 19 18 18 19 19 21
54 56 57 56 58 58 57 55 52 51 49 47 46 46 43 40 40 37 35 34 32 29 27 26 25 26 25 25 24 23 22 20 20 21 21 21 21 22 23 23 23 23 22
51 55 58 59 59 60 60 58 57 55 53 51 49 48 48 44 43 42 40 38 35 33 31 30 28 27 28 27 26 25 24 23 23 23 23 25 26 26 27 27 27 26 26
50 50 55 61 62 63 64 63 61 59 57 55 53 51 50 51 46 45 44 42 39 38 36 33 29 29 30 29 29 27 26 26 25 25 27 29 29 29 28 28 30 29 28
54 52 53 56 63 65 65 67 67 65 62 60 57 55 53 53 54 49 46 47 44 42 40 38 34 32 32 32 31 29 28 28 28 28 28 31 32 32 29 26 28 28 28
57 58 58 59 60 61 67 68 68 70 68 64 63 60 58 55 57 56 52 48 46 45 43 41 38 37 35 35 34 32 30 30 30 30 29 29 32 33 30 25 26 28 27
54 58 63 65 66 65 65 66 70 71 70 68 65 66 63 60 60 59 58 53 51 48 47 44 41 39 38 37 37 35 35 32 32 31 30 30 30 29 29 27 25 26 27
55 60 62 64 70 73 72 71 71 73 73 72 68 68 67 65 65 62 62 58 54 52 49 47 46 44 44 39 38 38 39 34 33 34 33 31 29 27 27 28 26 25 26
55 60 65 67 67 72 76 78 77 77 76 74 73 68 70 69 69 66 66 64 62 59 54 51 48 46 49 42 39 41 40 36 34 35 36 36 32 29 27 28 27 26 27
57 58 64 68 70 72 77 80 83 82 82 78 75 74 72 73 73 69 70 68 66 62 60 54 49 48 50 43 42 41 41 41 37 37 36 37 36 33 28 27 26 27 28
59 61 64 69 72 76 79 83 86 87 89 87 80 78 74 75 76 74 72 71 69 66 60 58 52 50 52 44 44 45 41 42 38 38 38 38 37 36 31 28 28 29 31
63 66 68 74 76 77 83 86 89 91 93 94 90 84 78 76 77 78 75 72 71 71 65 61 56 52 51 49 48 45 44 42 41 41 41 39 38 39 34 32 30 31 33
60 64 67 71 76 79 82 89 93 96 95 96 99 91 86 75 78 79 79 75 74 73 71 65 58 56 53 55 50 47 45 45 43 45 41 41 39 39 37 34 33 32 34
55 58 64 68 73 78 81 87 94 99 98 97 100 99 93 80 81 80 80 78 76 74 73 68 63 59 54 57 54 52 47 48 46 47 46 43 40 38 38 37 36 37 38
55 57 59 64 70 75 80 85 88 94 99 97 101 99 96 90 57 75 84 79 78 76 73 70 67 63 58 61 61 57 49 49 49 51 46 45 43 39 38 40 39 39 41
55 56 56 61 65 70 76 82 86 90 94 100 99 100 98 93 92 91 83 80 79 78 74 72 70 67 65 61 60 58 53 51 51 48 49 49 45 41 42 44 42 43 43
54 57 57 59 64 68 70 75 80 83 88 92 100 101 95 93 94 91 83 76 77 81 76 75 75 72 65 65 61 59 55 52 53 55 56 52 48 46 46 43 43 47 49
53 51 51 58 59 59 62 69 74 76 78 83 96 100 97 107 92 92 81 79 81 83 79 76 74 73 66 69 61 64 61 55 58 60 58 56 50 50 51 47 49 51 53
55 52 52 55 51 50 53 59 67 72 76 76 88 101 103 105 93 92 84 84 80 81 78 78 75 75 75 66 59 65 63 65 64 63 60 56 54 53 55 51 55 54 56
55 49 47 51 46 45 47 52 58 64 71 75 84 101 105 100 97 87 86 77 81 78 77 79 75 75 76 74 65 69 69 70 67 64 61 61 57 57 58 54 57 57 57
52 44 38 43 40 38 39 44 52 56 64 72 83 97 102 97 103 97 84 76 76 78 76 75 75 76 79 74 73 74 72 71 66 61 67 64 60 60 58 58 63 61 60
50 45 35 33 33 32 32 38 44 50 61 71 79 99 99 103 105 96 82 85 81 78 72 77 82 81 79 75 76 73 75 69 66 67 65 65 63 61 60 61 61 62 62
Wind_Direction
238 240 241 242 242 240 237 234 232 231 229 228 227 227 228 224 228 225 219 225 227 223 216 212 208 208 210 215 218 221 225 228 236 242 247 250 255 259 261 263 264 267 272
235 238 237 239 240 241 239 236 232 231 228 229 229 228 228 226 224 228 227 221 231 235 231 227 225 223 227 230 236 239 238 240 244 250 258 262 263 267 266 263 264 268 271
240 239 238 237 238 238 240 239 234 229 231 228 230 230 228 228 230 227 229 231 229 236 238 235 234 234 233 234 236 239 242 247 252 256 262 268 275 286 282 277 276 273 270
243 237 238 237 237 238 239 238 236 233 230 231 229 231 228 227 231 234 229 234 241 237 240 242 242 242 241 240 243 246 250 253 253 261 269 278 287 291 295 289 280 275 272
243 240 236 236 235 234 235 237 237 235 233 232 231 229 228 226 231 232 232 231 239 245 246 246 248 250 253 250 248 250 255 258 265 268 269 276 286 292 294 288 277 277 272
241 241 240 236 237 236 235 236 236 237 236 234 233 231 226 227 228 232 234 236 240 243 243 246 250 253 257 258 258 258 259 260 263 269 276 281 285 288 289 285 277 274 274
237 243 241 240 236 237 235 235 237 237 237 236 235 234 230 223 230 231 233 237 238 239 242 248 246 253 257 259 262 263 266 268 269 272 278 281 283 285 287 288 283 277 275
241 235 244 241 238 236 235 235 236 236 237 237 235 234 233 227 224 233 235 238 238 239 243 245 248 252 258 259 262 264 267 269 271 276 279 282 284 286 287 285 280 278 276
240 236 237 243 242 237 236 235 235 236 237 235 237 236 234 232 227 226 234 238 239 240 241 243 249 252 257 258 257 260 263 266 270 276 281 285 287 290 292 287 277 276 276
239 237 233 237 239 240 238 236 236 236 236 236 235 236 235 234 231 226 231 234 238 240 243 244 246 250 256 257 257 260 264 268 270 274 280 286 290 291 295 291 281 275 273
242 242 237 234 237 236 236 237 234 235 235 234 234 235 236 233 233 233 227 232 235 238 241 243 246 248 253 257 260 262 265 271 272 276 283 283 286 287 288 288 282 274 271
249 247 242 238 237 237 234 233 234 231 233 232 233 233 234 235 233 232 234 227 234 236 239 243 245 244 248 252 257 259 265 269 276 278 286 284 287 283 283 282 278 274 273
254 252 249 243 237 239 238 234 232 232 227 231 229 231 232 234 236 231 231 233 230 233 236 238 244 244 245 248 254 259 263 269 270 276 285 287 288 285 280 277 272 270 271
259 257 254 249 244 238 239 236 232 232 231 224 228 226 229 230 233 233 231 231 233 233 235 236 240 243 245 246 250 256 259 264 265 272 278 285 287 285 278 276 272 271 271
265 265 261 252 244 239 240 238 235 230 230 229 223 222 223 227 230 232 232 231 232 232 234 236 236 241 243 246 250 257 260 260 262 269 273 280 283 282 276 275 273 274 276
266 263 259 256 250 242 236 238 236 232 228 228 224 222 220 223 228 231 230 231 232 233 231 234 234 238 239 245 250 254 259 256 263 270 271 277 281 280 273 274 274 279 280
267 262 258 253 251 247 240 236 236 234 230 226 226 221 220 220 224 230 231 230 231 233 233 232 233 236 236 247 250 254 253 253 260 270 273 276 275 282 275 276 277 276 273
269 261 257 254 250 248 244 239 236 234 232 228 226 223 219 215 222 226 229 230 231 231 232 232 230 233 238 244 249 251 251 252 258 262 269 274 274 277 274 274 275 277 273
272 265 260 256 252 249 246 243 239 236 233 231 225 223 220 216 218 237 229 227 230 232 230 230 229 229 236 243 249 250 248 250 256 258 269 274 275 274 278 276 274 274 276
275 270 263 258 256 251 246 245 242 239 233 230 226 222 218 214 211 222 227 228 228 231 231 231 229 233 235 242 248 250 250 251 254 259 266 272 274 277 282 280 275 274 275
279 273 268 263 259 255 250 246 244 240 237 229 225 221 219 213 211 216 221 225 227 231 230 231 233 232 238 239 247 247 249 251 248 258 265 270 271 276 279 281 280 275 277
285 277 278 269 265 258 252 248 245 243 237 229 222 219 214 214 208 215 223 225 228 230 229 230 234 238 233 235 242 251 248 251 253 260 264 267 269 271 277 278 275 274 278
291 287 284 279 274 266 257 246 241 237 234 225 218 214 214 213 206 213 219 220 223 228 228 230 231 234 237 235 240 245 249 252 255 260 264 267 271 271 274 274 276 273 273
291 289 287 282 278 268 254 243 238 230 226 220 213 211 214 210 205 204 213 217 224 227 229 230 228 232 237 240 237 242 247 253 259 261 265 266 270 272 271 267 272 272 274
294 292 287 288 279 265 252 242 234 224 218 215 210 207 212 207 205 210 215 222 220 222 226 229 230 233 233 239 240 243 247 251 254 261 264 264 266 267 269 270 270 271 277
298 303 292 292 280 261 246 239 228 216 209 206 204 202 205 200 203 206 208 220 215 223 228 230 232 233 236 236 239 245 249 253 248 255 263 264 264 267 271 275 274 271 278
Height
10812 10814 10817 10820 10824 10828 10831 10836 10839 10843 10846 10848 10850 10853 10856 10858 10860 10861 10862 10863 10865 10866 10868 10869 10870 10872 10873 10874 10875 10877 10878 10878 10880 10881 10882 10882 10882 10882 10882 10881 10881 10880 10880
10804 10805 10810 10813 10818 10822 10825 10829 10833 10837 10841 10844 10846 10848 10851 10854 10856 10858 10860 10861 10863 10865 10866 10868 10869 10870 10871 10872 10874 10875 10875 10876 10877 10878 10879 10879 10879 10878 10878 10877 10877 10876 10876
10796 10800 10803 10807 10811 10815 10818 10823 10826 10830 10834 10838 10841 10844 10846 10849 10851 10854 10856 10858 10860 10862 10864 10865 10867 10868 10869 10870 10871 10872 10873 10874 10875 10876 10876 10875 10875 10874 10873 10873 10872 10872 10872
10784 10793 10795 10800 10805 10809 10812 10815 10819 10823 10827 10831 10835 10838 10841 10844 10846 10849 10852 10854 10857 10859 10861 10863 10864 10865 10866 10867 10868 10869 10870 10871 10871 10872 10872 10872 10871 10870 10869 10869 10869 10869 10869
10776 10781 10786 10790 10793 10798 10803 10808 10811 10815 10819 10823 10828 10832 10835 10838 10841 10843 10847 10849 10852 10855 10858 10860 10861 10862 10863 10864 10865 10866 10867 10867 10868 10868 10868 10869 10868 10867 10867 10866 10866 10866 10866
10767 10771 10775 10780 10784 10790 10795 10799 10802 10806 10811 10815 10819 10824 10828 10832 10835 10838 10840 10843 10847 10850 10853 10855 10858 10859 10859 10860 10861 10862 10863 10863 10864 10864 10864 10864 10864 10864 10864 10863 10862 10862 10862
10763 10762 10765 10768 10775 10779 10784 10789 10793 10797 10800 10806 10811 10816 10819 10824 10828 10831 10834 10837 10841 10845 10847 10850 10853 10854 10855 10855 10857 10858 10859 10859 10859 10860 10859 10859 10860 10860 10859 10858 10858 10858 10857
10751 10756 10753 10756 10761 10767 10772 10777 10782 10786 10792 10795 10801 10806 10810 10815 10819 10823 10827 10830 10834 10838 10841 10844 10847 10849 10849 10851 10851 10853 10854 10854 10855 10855 10854 10854 10854 10855 10854 10854 10852 10852 10852
10737 10743 10745 10744 10748 10754 10760 10765 10769 10775 10779 10784 10789 10795 10801 10806 10809 10814 10819 10822 10826 10830 10834 10838 10841 10843 10844 10845 10846 10848 10850 10849 10850 10850 10849 10849 10849 10849 10849 10848 10847 10847 10847
10725 10729 10733 10732 10735 10740 10745 10752 10757 10762 10767 10772 10778 10783 10789 10796 10801 10804 10809 10814 10818 10822 10826 10831 10835 10837 10838 10839 10840 10844 10843 10844 10845 10845 10845 10844 10843 10842 10842 10843 10842 10842 10842
10713 10715 10718 10720 10720 10725 10730 10735 10741 10748 10754 10759 10765 10771 10777 10785 10788 10795 10799 10805 10809 10814 10818 10823 10827 10830 10831 10832 10835 10837 10837 10838 10839 10839 10839 10839 10839 10837 10837 10837 10837 10836 10837
10699 10698 10700 10705 10707 10708 10714 10718 10723 10731 10739 10746 10752 10758 10765 10770 10775 10783 10789 10794 10800 10805 10810 10814 10819 10823 10822 10826 10828 10830 10830 10832 10832 10833 10833 10833 10833 10832 10831 10830 10831 10831 10831
10684 10682 10682 10687 10692 10693 10696 10702 10707 10713 10721 10729 10737 10745 10752 10756 10761 10771 10776 10782 10788 10793 10799 10805 10810 10814 10814 10819 10821 10821 10824 10826 10826 10826 10826 10826 10827 10827 10826 10825 10825 10825 10825
10665 10667 10666 10668 10674 10677 10677 10681 10689 10695 10702 10711 10719 10728 10735 10741 10747 10756 10762 10769 10776 10782 10788 10795 10801 10806 10806 10811 10811 10814 10817 10819 10819 10820 10820 10820 10821 10821 10821 10819 10819 10819 10819
10647 10646 10644 10644 10649 10656 10658 10662 10666 10675 10682 10690 10700 10708 10715 10725 10733 10740 10748 10757 10764 10770 10778 10784 10791 10797 10798 10802 10801 10806 10810 10812 10811 10813 10814 10814 10814 10814 10814 10813 10812 10813 10813
10626 10624 10623 10620 10624 10633 10637 10638 10642 10651 10659 10670 10680 10689 10702 10712 10720 10726 10735 10744 10752 10758 10766 10773 10780 10786 10789 10791 10792 10797 10802 10803 10804 10805 10807 10807 10807 10807 10807 10807 10806 10806 10805
10602 10599 10599 10601 10601 10607 10613 10615 10620 10625 10637 10648 10656 10672 10686 10699 10705 10714 10722 10733 10739 10744 10754 10762 10770 10777 10781 10779 10782 10787 10794 10794 10796 10796 10798 10800 10800 10800 10800 10800 10799 10798 10797
10580 10578 10576 10576 10579 10581 10585 10590 10595 10601 10612 10627 10636 10651 10668 10682 10689 10696 10708 10720 10726 10732 10741 10750 10758 10766 10771 10770 10772 10777 10786 10786 10787 10789 10790 10792 10792 10793 10793 10792 10792 10791 10789
10558 10556 10555 10555 10555 10556 10560 10563 10570 10578 10590 10603 10615 10633 10650 10668 10681 10683 10694 10704 10713 10721 10729 10737 10746 10754 10761 10761 10762 10766 10776 10778 10778 10780 10781 10782 10783 10784 10785 10784 10784 10783 10781
10538 10535 10535 10534 10534 10534 10535 10538 10546 10554 10565 10578 10596 10611 10632 10649 10664 10671 10679 10691 10698 10708 10717 10726 10733 10742 10749 10751 10753 10756 10764 10769 10768 10769 10771 10773 10775 10775 10776 10776 10775 10774 10772
10521 10516 10514 10513 10511 10510 10512 10515 10519 10528 10538 10555 10572 10592 10611 10626 10642 10650 10660 10675 10685 10695 10703 10711 10719 10729 10739 10741 10743 10748 10751 10757 10760 10761 10762 10764 10765 10766 10767 10766 10765 10763 10761
10502 10498 10496 10490 10489 10489 10490 10492 10497 10505 10515 10530 10549 10571 10592 10602 10624 10636 10650 10662 10670 10679 10689 10699 10709 10718 10725 10731 10735 10737 10742 10746 10749 10751 10753 10754 10756 10757 10757 10756 10755 10753 10752
10486 10481 10476 10471 10467 10467 10466 10467 10473 10482 10491 10508 10529 10551 10568 10587 10605 10618 10634 10644 10655 10663 10674 10686 10696 10704 10712 10717 10723 10730 10731 10735 10737 10740 10742 10744 10746 10746 10746 10745 10744 10743 10741
10471 10468 10461 10452 10449 10445 10444 10446 10451 10460 10473 10489 10508 10529 10546 10573 10590 10603 10615 10629 10639 10650 10661 10671 10681 10691 10698 10705 10712 10718 10722 10723 10727 10729 10733 10734 10734 10734 10733 10733 10732 10731 10729
10457 10453 10447 10438 10433 10429 10427 10430 10434 10445 10457 10474 10492 10513 10535 10558 10578 10588 10603 10609 10624 10635 10647 10658 10668 10677 10684 10692 10701 10706 10710 10713 10716 10718 10719 10721 10721 10722 10723 10721 10719 10718 10717
10447 10438 10433 10426 10420 10418 10416 10418 10424 10436 10446 10466 10486 10504 10526 10544 10559 10574 10588 10595 10611 10623 10636 10645 10654 10663 10672 10679 10688 10694 10698 10702 10703 10707 10707 10708 10709 10709 10709 10708 10706 10704 10704